Location: NJAA Observatory
(40.6819°N, 74.8979°W)
Time: 11:33:55
(UTC-05:00)

Vanguard 1 - All Passes

Search period start: 05 December 2016 00:00
Search period end: 15 December 2016 00:00
Orbit: 650 x 3834 km, 34.3° (Epoch: 03 December)

Date Brightness Start Highest point End Pass type
(mag) Time Alt. Az. Time Alt. Az. Time Alt. Az.
05 Dec - 11:40:12 10° SSE 11:44:53 14° SE 11:50:44 10° E daylight
05 Dec - 13:53:43 10° SW 14:04:17 47° SSE 14:22:23 10° E daylight
05 Dec - 16:12:59 10° WSW 16:27:39 71° S 16:50:40 10° E daylight
05 Dec - 18:34:51 10° W 18:53:42 65° SSW 19:16:41 10° ESE visible
05 Dec - 20:59:25 10° W 21:19:03 40° SW 21:37:54 10° SSE visible
05 Dec - 23:33:49 10° WSW 23:41:19 13° SW 23:48:22 10° SW visible
06 Dec - 11:58:26 10° S 12:05:05 20° SE 12:14:33 10° E daylight
06 Dec - 14:14:13 10° SW 14:25:11 55° SSE 14:44:20 10° E daylight
06 Dec - 16:34:04 10° W 16:49:09 72° S 17:12:23 10° ESE visible
06 Dec - 18:56:13 10° W 19:15:10 60° SSW 19:37:42 10° SE visible
06 Dec - 21:21:36 10° W 21:39:56 33° SW 21:57:31 10° SSE visible
07 Dec - 12:17:49 10° S 12:25:23 28° SE 12:37:17 10° E daylight
07 Dec - 14:34:54 10° WSW 14:46:14 61° SSE 15:06:13 10° E daylight
07 Dec - 16:55:12 10° W 17:10:42 71° S 17:34:00 10° ESE visible
07 Dec - 19:17:40 10° W 19:36:33 54° SSW 19:58:27 10° SE visible
07 Dec - 21:44:17 10° W 22:00:42 26° SW 22:16:30 10° S visible
08 Dec - 12:37:43 10° SSW 12:45:52 36° SE 12:59:32 10° E daylight
08 Dec - 14:55:45 10° WSW 15:07:27 66° SSE 15:28:04 10° E daylight
08 Dec - 17:16:22 10° W 17:32:14 68° S 17:55:30 10° ESE visible
08 Dec - 19:39:14 10° W 19:57:48 47° SSW 20:18:53 10° SSE visible
08 Dec - 22:07:55 10° W 22:21:23 19° SW 22:34:27 10° SSW visible
09 Dec - 10:46:48 10° SE 10:47:46 10° SE 10:48:48 10° ESE daylight
09 Dec - 12:57:58 10° SW 13:06:31 44° SSE 13:21:35 10° E daylight
09 Dec - 15:16:41 10° WSW 15:28:45 69° S 15:49:54 10° E daylight
09 Dec - 17:37:36 10° W 17:53:44 64° SSW 18:16:48 10° ESE visible
09 Dec - 20:00:59 10° W 20:18:57 39° SW 20:38:56 10° SSE visible
09 Dec - 22:33:55 10° WSW 22:42:02 13° SW 22:50:02 10° SSW visible
10 Dec - 11:03:17 10° SSE 11:07:59 16° SE 11:14:15 10° E daylight
10 Dec - 13:18:27 10° SW 13:27:20 51° SSE 13:43:29 10° E daylight
10 Dec - 15:37:41 10° W 15:50:09 70° S 16:11:40 10° ESE daylight
10 Dec - 17:58:52 10° W 18:15:11 58° SSW 18:37:52 10° SE visible
10 Dec - 20:23:04 10° W 20:40:00 32° SW 20:58:29 10° SSE visible
11 Dec - 11:22:27 10° S 11:28:19 23° SE 11:37:05 10° E daylight
11 Dec - 13:39:07 10° WSW 13:48:19 58° SSE 14:05:21 10° E daylight
11 Dec - 15:58:44 10° W 16:11:35 68° S 16:33:21 10° ESE daylight
11 Dec - 18:20:13 10° W 18:36:35 51° SSW 18:58:39 10° SE visible
11 Dec - 20:45:42 10° W 21:00:57 25° SW 21:17:22 10° S visible
12 Dec - 11:42:18 10° SSW 11:48:46 31° SE 11:59:19 10° E daylight
12 Dec - 13:59:55 10° WSW 14:09:26 63° SSE 14:27:11 10° E daylight
12 Dec - 16:19:50 10° W 16:33:02 65° S 16:54:53 10° ESE daylight
12 Dec - 18:41:42 10° W 18:57:54 44° SSW 19:19:05 10° SSE visible
12 Dec - 21:09:18 10° W 21:21:51 19° SW 21:35:07 10° SSW visible
13 Dec - 12:02:32 10° SW 12:09:23 39° SSE 12:21:17 10° E daylight
13 Dec - 14:20:49 10° WSW 14:30:39 66° S 14:48:59 10° E daylight
13 Dec - 16:40:58 10° W 16:54:27 61° SSW 17:16:14 10° ESE visible
13 Dec - 19:03:24 10° W 19:19:08 37° SW 19:39:06 10° SSE visible
13 Dec - 21:35:31 10° WSW 21:42:44 12° SW 21:50:12 10° SSW visible
14 Dec - 10:08:36 10° SSE 10:11:18 12° SE 10:14:31 10° ESE daylight
14 Dec - 12:23:00 10° SW 12:30:10 47° SSE 12:43:07 10° E daylight
14 Dec - 14:41:46 10° W 14:51:56 67° S 15:10:45 10° ESE daylight
14 Dec - 17:02:10 10° W 17:15:51 55° SSW 17:37:19 10° SE visible
14 Dec - 19:25:26 10° W 19:40:18 30° SW 19:58:34 10° SSE visible
